EW4719 Weather Reports


Display with metric or nautical units.
time (UTC)temp
F
wind
direction
speed
MPH
gust
MPH
rain 1hr
in
rain 24hr
in
rain mn
in
humidity
%
barometer
mb
20260507093003 51 173 6.0 14.0 0.00 0.00 0.00 71 1012.6
20260507091547 51 189 7.0 13.0 0.00 0.00 0.00 71 1012.6
20260507090111 51 159 7.0 16.0 0.00 0.00 0.00 72 1012.5
20260507084606 51 197 4.0 20.0 0.00 0.00 0.00 72 1012.6
20260507083124 51 173 5.0 19.0 0.00 0.00 0.00 73 1012.6
20260507081528 50 248 8.0 16.0 0.00 0.00 0.00 72 1012.6
20260507080007 48 171 7.0 13.0 0.00 0.00 0.00 75 1012.6
20260507074512 48 175 7.0 17.0 0.00 0.00 0.00 76 1012.7
20260507073128 47 240 6.0 21.0 0.00 0.00 0.00 77 1012.6
20260507071530 45 236 6.0 14.0 0.00 0.00 0.00 78 1012.7
20260507070150 45 213 7.0 16.0 0.00 0.00 0.00 77 1012.6
20260507064542 45 246 7.0 13.0 0.00 0.00 0.00 76 1012.5
20260507063059 45 238 7.0 17.0 0.00 0.00 0.00 76 1012.7
20260507061553 45 187 8.0 21.0 0.00 0.00 0.00 76 1012.7
20260507060107 44 201 9.0 18.0 0.00 0.00 0.00 76 1012.7
20260507054545 44 226 8.0 17.0 0.00 0.00 0.00 75 1012.7
20260507053120 44 188 8.0 21.0 0.00 0.00 0.00 75 1012.7
20260507051609 44 211 8.0 14.0 0.00 0.00 0.00 74 1012.6
20260507050128 44 184 8.0 16.0 0.00 0.00 0.00 73 1012.8
20260507044513 44 186 8.0 16.0 0.00 0.00 0.00 72 1012.8
20260507043133 44 202 9.0 20.0 0.00 0.00 0.00 71 1012.7
20260507041544 44 222 7.0 17.0 0.00 0.00 0.00 71 1012.7
20260507040100 44 158 7.0 17.0 0.00 0.00 0.00 70 1012.6
20260507034556 45 264 9.0 20.0 0.00 0.00 0.00 69 1012.6
20260507033116 45 170 9.0 20.0 0.00 0.00 0.00 68 1012.9
20260507031514 45 227 6.0 15.0 0.00 0.00 0.00 69 1013.1
20260507030001 44 234 6.0 12.0 0.00 0.00 0.00 70 1013.1
20260507024547 44 199 6.0 15.0 0.00 0.00 0.00 70 1013.1
20260507023109 44 250 5.0 12.0 0.00 0.00 0.00 69 1013.2
20260507021609 44 155 6.0 15.0 0.00 0.00 0.00 70 1013.0
20260507020009 44 167 6.0 12.0 0.00 0.00 0.00 69 1013.0
20260507014544 44 190 6.0 15.0 0.00 0.00 0.00 69 1013.0
20260507013023 44 184 7.0 12.0 0.00 0.00 0.00 68 1013.1
20260507011548 44 205 7.0 17.0 0.00 0.00 0.00 68 1013.2
20260507010101 44 182 6.0 11.0 0.00 0.00 0.00 68 1013.3
20260507004557 44 208 6.0 11.0 0.00 0.00 0.00 68 1013.4
20260507003119 44 207 6.0 14.0 0.00 0.00 0.00 68 1013.5
20260507001505 44 206 5.0 12.0 0.00 0.00 0.00 68 1013.5
20260507000005 43 164 7.0 15.0 0.00 0.00 0.00 70 1013.6
20260506234539 43 185 7.0 15.0 0.00 0.00 0.00 70 1013.6
20260506233100 43 192 8.0 18.0 0.00 0.00 0.00 70 1013.7
20260506231557 43 175 7.0 17.0 0.00 0.00 0.00 70 1013.9
20260506230109 43 171 6.0 15.0 0.00 0.00 0.00 70 1013.9
20260506224601 43 166 6.0 13.0 0.00 0.00 0.00 70 1013.9
20260506223133 44 161 6.0 13.0 0.00 0.00 0.00 69 1014.0
20260506221539 44 195 5.0 11.0 0.00 0.00 0.00 70 1014.1
20260506220059 43 159 4.0 14.0 0.00 0.00 0.00 72 1014.2
20260506214610 43 138 4.0 9.0 0.00 0.00 0.00 72 1014.2
20260506213002 43 164 4.0 10.0 0.00 0.00 0.00 71 1014.1
20260506211559 44 150 6.0 12.0 0.00 0.00 0.00 70 1014.3
20260506210113 44 157 5.0 10.0 0.00 0.00 0.00 70 1014.4
20260506204507 44 136 4.0 9.0 0.00 0.00 0.00 70 1014.4
20260506203014 45 154 5.0 11.0 0.00 0.00 0.00 70 1014.4
20260506201558 45 125 5.0 9.0 0.00 0.00 0.00 70 1014.4
20260506200108 45 141 4.0 8.0 0.00 0.00 0.00 70 1014.5
20260506194503 46 103 3.0 8.0 0.00 0.00 0.00 68 1014.6
20260506193004 46 164 4.0 8.0 0.00 0.00 0.00 67 1014.4
20260506191547 47 146 3.0 8.0 0.00 0.00 0.00 66 1014.4
20260506190108 47 168 4.0 10.0 0.00 0.00 0.00 64 1014.3
20260506184609 47 111 3.0 9.0 0.00 0.00 0.00 65 1014.3
20260506183121 48 154 3.0 10.0 0.00 0.00 0.00 64 1014.3
20260506181518 48 101 5.0 11.0 0.00 0.00 0.00 63 1014.3
20260506180057 48 127 3.0 10.0 0.00 0.00 0.00 61 1014.3
20260506174558 49 115 3.0 8.0 0.00 0.00 0.00 61 1014.3
20260506173111 49 155 3.0 8.0 0.00 0.00 0.00 60 1014.2
20260506171502 49 67 2.0 6.0 0.00 0.00 0.00 58 1014.3
20260506170108 50 148 2.0 7.0 0.00 0.00 0.00 57 1014.3
20260506164545 50 10 2.0 5.0 0.00 0.00 0.00 57 1014.4
20260506163112 51 134 2.0 6.0 0.00 0.00 0.00 55 1014.4
20260506161602 52 87 2.0 9.0 0.00 0.00 0.00 54 1014.6
20260506160125 50 104 2.0 10.0 0.00 0.00 0.00 57 1014.7
20260506154529 51 86 3.0 11.0 0.00 0.00 0.00 56 1014.7
20260506153010 51 338 2.0 10.0 0.00 0.00 0.00 59 1014.9
20260506151545 49 348 5.0 12.0 0.00 0.00 0.00 65 1015.1
20260506150056 49 42 6.0 12.0 0.00 0.00 0.00 65 1015.3
20260506144600 49 74 5.0 14.0 0.00 0.00 0.00 64 1015.4
20260506143114 50 63 4.0 12.0 0.00 0.00 0.00 63 1015.5
20260506141510 49 53 5.0 12.0 0.00 0.00 0.00 62 1015.7
20260506140007 49 52 7.0 13.0 0.00 0.00 0.00 62 1015.6
20260506134539 49 77 5.0 15.0 0.00 0.00 0.00 62 1015.8
20260506133009 50 74 5.0 13.0 0.00 0.00 0.00 60 1015.9
20260506131541 50 355 3.0 13.0 0.00 0.00 0.00 61 1015.9
20260506130009 49 89 2.0 12.0 0.00 0.00 0.00 62 1015.9
20260506124549 51 317 4.0 10.0 0.00 0.00 0.00 61 1016.0
20260506123107 49 68 3.0 11.0 0.00 0.00 0.00 64 1015.9
20260506121553 50 57 3.0 11.0 0.00 0.00 0.00 62 1015.9
20260506120122 49 360 4.0 10.0 0.00 0.00 0.00 64 1016.0
20260506114611 50 66 5.0 10.0 0.00 0.00 0.00 63 1016.1
20260506113127 50 74 5.0 11.0 0.00 0.00 0.00 64 1016.3
20260506111503 49 68 3.0 8.0 0.00 0.00 0.00 67 1016.4
20260506110045 48 148 1.0 6.0 0.00 0.00 0.00 67 1016.5
20260506104541 49 78 5.0 11.0 0.00 0.00 0.00 65 1016.6
20260506103114 48 114 2.0 8.0 0.00 0.00 0.00 65 1016.7
20260506101552 48 148 3.0 10.0 0.00 0.00 0.00 61 1016.7
20260506100101 48 114 1.0 7.0 0.00 0.00 0.00 63 1016.8
20260506094604 46 33 3.0 9.0 0.00 0.00 0.00 68 1016.9